GOES 11 [-]

Last updated on Aug. 14, 2020, 5:30 a.m. UTC

1 26352U 00022A   20226.60359848 -.00000009  00000-0  00000+0 0  9996
2 26352   7.2791  64.5039 0000931 154.0426 225.8742  0.99040370 73864
UTC
Height (km)
Latitude
Longitude
Inclination
Orbital Period
UTC large
Height (km)
Speed (km/s)
/
Latitude / Longitude
Inclination (degrees)
Orbital Period (minutes)
Azimuth
Elevation
Range (km)
Doppler Factor
iOS Compass Heading
iOS Angle

Next 30 passes for location: Hong Kong

Rise time Rise Azimuth (degrees) Set time Set Azimuth (degrees) Duration Max altitude (degrees)

No matching passes for this satellites